Location: Atherton
(17.2661°S, 145.4859°E)
Time: 03:19:14
(UTC+10:00)

Hubble Space Telescope - Pass Details

Date: 14 February 2026
Orbit: 476 x 479 km, 28.5° (Epoch: 6 March)

Event Time Altitude Azimuth Distance (km) Brightness Sun altitude
Rises 20:12:31 0° 259° (W) 2,519 5.8 -19.1°
Reaches altitude 10° 20:15:07 10° 242° (WSW) 1,643 4.5 -19.7°
Maximum altitude 20:18:00 20° 192° (SSW) 1,141 2.8 -20.4°
Enters shadow 20:20:00 14° 153° (SSE) 1,409 2.8 -20.8°
